Skip Navigation Links weather.gov 
NOAA logo-Select to go to the NOAA homepage NDBC Title GraphicClick to go to NDBC home page   Select to go to the NWS homepage
Home About Us Contact Us
 
 
    
    Station List

 Data Access
    Mobile Access
    Classic Maps
         Recent
         DART®
    Obs Search
    Ship Obs Report
    BuoyCAMs
    TAO
    DODS
    OceanSITES
    HF Radar
    OSMC
    Dial-A-Buoy
    RSS Feeds Image indicating link to RSS feed access page
    Web Widget
    Email Access
    Web Data Guide
    Maintenance Schedule
    Station Status Report

 Program Info
    TAO
    DART®
    IOOS®

 Publications
    NDBC PEA
    NDBC FONSI
    NDBC DQC Handbook

 FAQ
 Visitor Information
 
USA.gov is the U.S. government's official web portal to all federal, state and local government web resources and services.

Station CPXC1 - Cal Poly Pier, CA Image indicating link to RSS feed of recent meteorological observations for station CPXC1

Owned and maintained by California Polytechnic State University
Coastal Marine Station
35.170 N 120.741 W (35°10'12" N 120°44'27" W)

Site elevation: sea level
Air temp height: 4 m above site elevation
Anemometer height: 4 m above site elevation
Barometer elevation: 4 m above mean sea level

Search And Rescue (SAR) Data

Meteorological Observations from Nearby Stations and Ships Image indicating link to RSS feed of recent meteorological observations near station CPXC1

Regional HF Radar Surface Current Observations

Station CPXC1
Large icon indicates selected station.
yellow diamond Stations with recent data
red diamond Stations with no data in last 8 hours
     (24 hours for tsunami stations)


Conditions at CPXC1 as of
(2:44 am PST)
1044 GMT on 12/16/2018:
     

Click on the graph icon in the table below to see a time series plot of the last five days of that observation.

5-day plot - Wind Direction Wind Direction (WDIR): NNE ( 20 deg true )
5-day plot - Wind Speed Wind Speed (WSPD): 5.1 kts
5-day plot - Wind Gust Wind Gust (GST): 7.0 kts
5-day plot - Atmospheric Pressure Atmospheric Pressure (PRES): 30.16 in
5-day plot - Air Temperature Air Temperature (ATMP): 49.1 °F
5-day plot - Dew Point Dew Point (DEWP): 47.1 °F
5-day plot - Wind Chill Wind Chill (CHILL): 46.8 °F
5-day plot - Wind Speed at 10 Meters Wind Speed at 10 meters (WSPD10M): 3.9 kts
5-day plot - Wind Speed at 10 Meters Wind Speed at 20 meters (WSPD20M): 5.8 kts
5-day plot - Wind Speed, Wind Gust and Atmospheric Pressure Combined plot of Wind Speed, Gust, and Air Pressure
Previous observations
5-day plot - Wind Direction 5-day plot - Wind Speed 5-day plot - Wind Gust 5-day plot - Wave Height 5-day plot - Dominant Wave Period 5-day plot - Average Period 5-day plot - Mean Wave Direction 5-day plot - Atmospheric Pressure 5-day plot - Pressure Tendency 5-day plot - Air Temperature 5-day plot - Water Temperature 5-day plot - Dew Point 5-day plot - Salinity 5-day plot - Visibility 5-day plot - Tide (above MLLW)
MM DD TIME
(PST)
WDIR WSPD
kts
GST
kts
WVHT
ft
DPD
sec
APD
sec
MWD PRES
in
PTDY
in
ATMP
°F
WTMP
°F
DEWP
°F
SAL
psu
VIS
nmi
TIDE
ft
1216 2:34 am N 7.0 8.9----30.16- 47.8- 45.9---
1216 2:30 am N 7.0 9.9----30.16- 47.8- 45.9---
1216 2:28 am N 8.0 9.9----30.16- 47.8- 45.9---
1216 2:26 am N 8.0 9.9----30.16- 47.5- 45.3---
1216 2:24 amNNE 7.0 8.9----30.16- 47.8- 45.7---
1216 2:22 amNNE 7.0 8.9----30.16- 48.2- 46.0---
1216 2:20 amNNE 7.0 8.9----30.16- 48.0- 45.9---
1216 2:18 amNNE 7.0 8.9----30.16- 48.0- 45.9---
1216 2:16 amNNE 7.0 8.9----30.16- 48.2- 46.0---
1216 2:14 amNNE 8.0 8.9----30.16- 48.0- 45.9---
1216 2:12 amNNE 8.0 8.9----30.16- 48.2- 46.0---
1216 2:10 amNNE 7.0 8.0----30.16- 48.0- 45.9---
1216 2:08 amNNE 7.0 8.0----30.16- 47.8- 45.7---
1216 2:06 amNNE 7.0 8.0----30.16- 47.8- 45.7---
1216 2:04 amNNE 6.0 7.0----30.16- 47.8- 45.7---
1216 2:02 am N 7.0 8.9----30.16- 48.0- 45.9---
1216 2:00 am N 7.0 8.9----30.16- 47.8- 45.7---
1216 1:58 amNNE 7.0 8.9----30.16- 48.2- 46.0---
1216 1:56 am N 7.0 8.9----30.16- 48.2- 46.0---
1216 1:54 am N 7.0 8.9----30.16- 48.2- 46.0---
1216 1:52 am N 8.0 8.9----30.16- 48.0- 45.9---
1216 1:50 am N 7.0 8.9----30.16- 47.7- 45.5---
1216 1:48 am N 8.0 8.9----30.16+0.02 47.7- 45.5---
1216 1:46 amNNE 8.9 9.9----30.16- 47.7- 45.3---
1216 1:44 amNNE 8.9 11.1----30.16- 47.8- 45.5---
1216 1:42 amNNE 8.0 8.9----30.16- 48.0- 45.9---
1216 1:40 amNNE 8.0 8.9----30.16- 48.0- 45.7---
1216 1:38 amNNE 8.0 8.9----30.16- 47.7- 45.3---
1216 1:36 amNNE 7.0 8.9----30.16- 48.0- 45.7---
1216 1:34 amNNE 7.0 8.0----30.16- 48.2- 45.9---
1216 1:32 amNNE 7.0 8.0----30.16- 48.2- 45.9---
1216 1:30 amNNE 7.0 8.9----30.16- 48.2- 45.9---
1216 1:28 amNNE 7.0 8.9----30.16- 48.2- 45.9---
1216 1:26 amNNE 8.0 8.9----30.16- 48.0- 45.7---
1216 1:24 amNNE 8.0 8.9----30.16- 48.0- 45.7---
1216 1:22 amNNE 8.0 8.9----30.16- 47.8- 45.5---
1216 1:20 amNNE 7.0 8.9----30.16- 47.8- 45.5---
1216 1:18 amNNE 7.0 8.9----30.16- 47.7- 45.3---
1216 1:16 amNNE 7.0 8.9----30.16- 47.7- 45.1---
1216 1:14 amNNE 7.0 7.0----30.16- 47.7- 45.1---
1216 1:12 amNNE 6.0 7.0----30.16- 47.7- 45.1---
1216 1:10 amNNE 6.0 7.0----30.16- 48.0- 45.7---
1216 1:08 amNNE 7.0 8.0----30.16- 48.0- 45.5---
1216 1:06 amNNE 7.0 7.0----30.16- 47.8- 45.3---
1216 1:04 amNNE 6.0 7.0----30.16- 47.8- 45.3---
1216 1:02 amNNE 6.0 7.0----30.16- 48.0- 45.5---
1216 1:00 amNNE 5.1 7.0----30.16- 48.0- 45.5---
121612:58 am N 5.1 7.0----30.16- 48.2- 45.7---
121612:56 amNNE 6.0 7.0----30.16- 48.2- 45.7---
121612:54 am N 5.1 7.0----30.16- 48.0- 45.5---
121612:52 am N 5.1 6.0----30.16- 48.0- 45.3---
121612:50 am N 4.1 5.1----30.16- 48.0- 45.3---
121612:48 am N 4.1 5.1----30.16+0.02 48.2- 45.5---
121612:46 am N 5.1 6.0----30.16- 48.4- 45.9---
121612:44 am N 6.0 7.0----30.16- 48.4- 45.7---
121612:42 am N 6.0 7.0----30.16- 48.4- 45.7---
121612:40 am N 6.0 7.0----30.16- 48.4- 45.9---
121612:38 amNNE 6.0 7.0----30.16- 48.4- 45.7---
121612:36 amNNE 6.0 7.0----30.16- 48.4- 45.7---
121612:34 amNNE 6.0 7.0----30.15- 48.4- 45.7---
121612:32 amNNE 6.0 7.0----30.16- 48.2- 45.5---
121612:30 amNNE 5.1 7.0----30.16- 48.2- 45.5---
121612:28 am N 5.1 7.0----30.15- 48.0- 45.3---
121612:26 am N 5.1 6.0----30.15- 48.0- 45.1---
121612:24 am N 5.1 7.0----30.15- 48.0- 45.1---
121612:22 am N 5.1 7.0----30.16- 48.0- 45.1---
121612:20 am N 5.1 6.0----30.16- 48.0- 45.1---
121612:18 am N 5.1 6.0----30.15- 48.4- 45.5---
121612:16 am N 4.1 6.0----30.15- 48.4- 45.5---
121612:14 am N 5.1 6.0----30.15- 48.6- 45.7---
121612:12 am N 5.1 6.0----30.15- 48.4- 45.5---
121612:10 am N 4.1 7.0----30.15- 48.6- 45.7---
121612:08 am N 4.1 7.0----30.15- 48.7- 45.9---
121612:06 am N 5.1 7.0----30.15- 48.7- 45.9---
121612:04 am N 4.1 6.0----30.15- 48.6- 45.7---
121612:02 am N 5.1 7.0----30.15- 48.6- 45.5---
121612:00 am N 6.0 7.0----30.15- 48.6- 45.5---
121511:58 pmNNE 5.1 6.0----30.15- 48.6- 45.5---
121511:56 pm N 5.1 7.0----30.15- 48.9- 45.9---
121511:54 pmNNE 5.1 6.0----30.15- 49.1- 46.0---
121511:52 pm N 5.1 6.0----30.15- 49.1- 46.0---
121511:50 pm N 5.1 6.0----30.15- 48.9- 45.7---
121511:48 pm N 4.1 5.1----30.15- 49.1- 45.9---
121511:46 pm N 4.1 6.0----30.15- 49.3- 46.0---
121511:44 pm N 4.1 5.1----30.15- 49.5- 46.2---
121511:42 pm N 4.1 5.1----30.15- 49.6- 46.8---
121511:40 pm N 2.9 4.1----30.15- 49.8- 46.9---
121511:38 pm N 2.9 4.1----30.14- 50.0- 47.1---
121511:36 pm N 2.9 5.1----30.14- 50.0- 47.1---
121511:34 pmNNW 2.9 5.1----30.14- 50.0- 47.3---
121511:32 pm N 5.1 6.0----30.14- 49.6- 46.6---
121511:30 pm N 5.1 6.0----30.14- 49.5- 46.2---
121511:28 pm N 6.0 7.0----30.14- 49.3- 46.0---
121511:26 pm N 6.0 8.0----30.14- 49.3- 46.0---
121511:24 pmNNE 7.0 8.9----30.14- 49.5- 46.2---
121511:22 pmNNE 7.0 8.9----30.14- 49.5- 46.2---
121511:20 pmNNE 7.0 8.9----30.14- 49.5- 46.2---
121511:18 pmNNE 8.0 8.9----30.14- 49.5- 46.2---
121511:16 pmNNE 8.0 8.9----30.14- 49.5- 46.2---
121511:14 pmNNE 7.0 8.0----30.14- 49.5- 46.2---
121511:12 pmNNE 7.0 8.0----30.14- 49.3- 46.0---
121511:10 pmNNE 7.0 8.9----30.14- 49.6- 46.4---
121511:08 pm N 7.0 8.9----30.14- 49.6- 46.6---
121511:06 pm N 7.0 8.0----30.14- 49.6- 46.6---
121511:04 pmNNE 7.0 8.9----30.14- 49.6- 46.6---
121511:02 pmNNE 7.0 8.9----30.14- 49.6- 46.4---
121511:00 pm N 7.0 8.0----30.14- 49.8- 46.8---
121510:58 pmNNE 7.0 7.0----30.14- 50.2- 47.1---
121510:56 pmNNE 7.0 8.0----30.14- 50.0- 46.9---
121510:54 pmNNE 7.0 8.0----30.14- 50.0- 46.9---
121510:52 pmNNE 7.0 8.9----30.14- 50.0- 46.9---
121510:50 pm N 7.0 8.9----30.14- 49.8- 46.8---
121510:48 pm N 7.0 8.0----30.14+0.03 49.8- 46.8---
121510:46 pm N 6.0 8.0----30.14- 50.0- 46.9---
121510:44 pm N 7.0 8.0----30.14- 49.8- 46.8---
121510:42 pmNNE 6.0 7.0----30.14- 49.8- 46.6---
121510:40 pmNNE 7.0 8.0----30.14- 49.8- 46.6---
121510:38 pmNNE 6.0 8.0----30.14- 49.8- 46.6---
121510:36 pmNNE 6.0 7.0----30.14- 50.0- 46.9---
121510:34 pmNNE 7.0 7.0----30.14- 50.0- 46.8---
121510:32 pmNNE 7.0 8.0----30.14- 49.8- 46.6---
121510:30 pmNNE 7.0 7.0----30.14- 49.8- 46.6---
121510:28 pm N 7.0 8.0----30.14- 49.8- 46.6---
121510:26 pm N 6.0 8.0----30.14- 49.8- 46.6---
121510:24 pm N 5.1 6.0----30.14- 49.6- 46.4---
121510:22 pm N 6.0 7.0----30.14- 49.6- 46.4---
121510:20 pm N 7.0 8.9----30.14- 49.8- 46.6---
121510:18 pm N 7.0 8.9----30.14- 49.8- 46.6---
121510:16 pm N 7.0 8.0----30.14- 49.8- 46.6---
121510:14 pm N 6.0 8.0----30.14- 49.8- 46.6---
121510:12 pm N 7.0 8.0----30.14- 49.8- 46.6---
121510:10 pm N 7.0 8.9----30.14- 50.0- 46.8---
121510:08 pmNNE 7.0 8.0----30.14- 50.0- 46.8---
121510:06 pmNNE 7.0 8.0----30.14- 50.0- 46.8---
121510:04 pm N 6.0 7.0----30.14- 49.8- 46.6---
121510:02 pm N 7.0 8.0----30.14- 49.6- 46.4---
121510:00 pm N 7.0 8.9----30.14- 49.6- 46.0---
1215 9:58 pmNNE 7.0 8.0----30.14- 49.6- 46.0---
1215 9:56 pm N 6.0 8.0----30.14- 49.5- 45.7---
1215 9:54 pm N 5.1 7.0----30.14- 49.6- 46.0---
1215 9:52 pm N 5.1 7.0----30.14- 49.6- 46.0---
1215 9:50 pm N 5.1 7.0----30.14- 49.8- 46.2---
1215 9:48 pm N 4.1 6.0----30.14+0.04 50.0- 46.4---
1215 9:46 pm N 2.9 5.1----30.14- 50.2- 46.6---
1215 9:44 pm N 2.9 5.1----30.14- 50.2- 46.6---
1215 9:42 pm N 4.1 6.0----30.14- 49.8- 46.0---
1215 9:40 pm N 5.1 7.0----30.14- 50.0- 46.0---
1215 9:38 pm N 5.1 7.0----30.14- 50.0- 46.0---
1215 9:36 pm N 4.1 6.0----30.13- 50.2- 46.0---
1215 9:34 pm N 5.1 7.0----30.13- 50.4- 46.2---
1215 9:32 pm N 4.1 7.0----30.13- 50.5- 46.2---
1215 9:30 pm N 4.1 5.1----30.13- 51.1- 46.9---
1215 9:28 pm N 1.9 5.1----30.14- 51.8- 47.8---
1215 9:26 pmNNW 1.9 1.9----30.13- 52.0- 48.2---
1215 9:24 pmNNW 1.9 1.9----30.13- 51.8- 48.0---
1215 9:22 pmNNW 1.9 4.1----30.13- 51.6- 47.8---
1215 9:20 pmNNW 1.9 4.1----30.13- 51.4- 47.5---
1215 9:18 pm N 4.1 5.1----30.13- 51.3- 47.1---
1215 9:16 pm N 5.1 5.1----30.13- 50.9- 46.8---
1215 9:14 pm N 5.1 6.0----30.13- 50.9- 46.6---
1215 9:12 pm N 5.1 6.0----30.12- 50.9- 46.6---
1215 9:10 pm N 5.1 6.0----30.12- 51.3- 46.9---
1215 9:08 pm N 4.1 6.0----30.12- 51.3- 46.8---
1215 9:06 pm N 4.1 5.1----30.12- 50.9- 46.2---
1215 9:04 pm N 5.1 7.0----30.12- 51.1- 46.4---
1215 9:02 pm N 5.1 7.0----30.12- 51.4- 46.8---
1215 9:00 pm N 4.1 6.0----30.12- 51.4- 46.6---
1215 8:58 pm N 5.1 6.0----30.12- 51.6- 46.8---
1215 8:56 pm N 5.1 7.0----30.12- 51.8- 46.8---
1215 8:54 pmNNE 5.1 7.0----30.12- 51.8- 46.8---
1215 8:52 pm N 6.0 7.0----30.12- 52.0- 47.1---
1215 8:50 pm N 6.0 7.0----30.12- 52.0- 47.3---
1215 8:48 pm N 6.0 7.0----30.12+0.01 52.2- 47.5---
1215 8:46 pm N 5.1 7.0----30.12- 52.2- 47.5---
1215 8:44 pm N 5.1 7.0----30.12- 52.0- 47.3---
1215 8:42 pm N 6.0 7.0----30.11- 52.2- 47.5---
1215 8:40 pm N 5.1 7.0----30.11- 52.0- 47.3---
1215 8:38 pm N 6.0 7.0----30.11- 52.0- 47.3---
1215 8:36 pm N 6.0 7.0----30.11- 52.3- 47.7---
1215 8:34 pmNNE 6.0 7.0----30.11- 52.2- 47.5---
1215 8:32 pmNNE 7.0 8.0----30.11- 52.0- 47.3---
1215 8:30 pmNNE 7.0 8.9----30.11- 52.0- 47.5---
1215 8:28 pmNNE 7.0 8.0----30.11- 52.0- 47.1---
1215 8:26 pmNNE 7.0 8.9----30.11- 52.0- 47.3---
1215 8:24 pmNNE 7.0 8.0----30.11- 52.0- 47.3---
1215 8:22 pmNNE 7.0 8.9----30.11- 52.0- 46.9---
1215 8:20 pm N 6.0 7.0----30.11- 52.0- 47.1---
1215 8:18 pmNNE 5.1 6.0----30.11- 52.0- 47.1---
1215 8:16 pm N 6.0 8.0----30.11- 52.0- 46.9---
1215 8:14 pm N 6.0 7.0----30.11- 52.2- 47.1---
1215 8:12 pm N 6.0 7.0----30.11- 52.2- 47.1---
1215 8:10 pm N 5.1 7.0----30.11- 52.2- 46.9---
1215 8:08 pm N 5.1 7.0----30.11- 52.3- 47.1---
1215 8:06 pm N 5.1 7.0----30.11- 52.7- 47.3---
1215 8:04 pm N 5.1 7.0----30.11- 52.7- 47.3---
1215 8:02 pm N 5.1 7.0----30.11- 52.9- 47.5---
1215 8:00 pm N 4.1 6.0----30.11- 52.9- 47.3---
1215 7:58 pm N 2.9 5.1----30.11- 53.2- 47.7---
1215 7:56 pm N 1.9 4.1----30.11- 53.4- 47.8---
1215 7:54 pm N 4.1 5.1----30.11- 53.4- 47.7---
1215 7:52 pm N 4.1 6.0----30.11- 53.6- 47.7---
1215 7:50 pm N 1.9 4.1----30.11- 54.1- 48.4---
1215 7:48 pm N 2.9 4.1----30.11+0.02 54.1- 48.6---
1215 7:46 pmNNW 4.1 5.1----30.11- 54.1- 48.6---
1215 7:44 pm NW 4.1 5.1----30.11- 54.0- 48.4---
1215 7:42 pmNNW 5.1 5.1----30.11- 54.0- 48.4---
1215 7:40 pmNNW 5.1 5.1----30.11- 54.0- 48.4---
1215 7:38 pmNNW 5.1 6.0----30.11- 54.0- 48.2---
1215 7:36 pmNNW 5.1 5.1----30.11- 53.8- 48.0---
1215 7:34 pmNNW 4.1 5.1----30.11- 53.8- 48.2---
1215 7:32 pmNNW 4.1 5.1----30.11- 53.8- 48.2---
1215 7:30 pmNNW 2.9 4.1----30.11- 54.0- 48.6---
1215 7:28 pmNNW 2.9 5.1----30.10- 54.0- 48.6---
1215 7:26 pmNNW 2.9 4.1----30.11- 53.8- 48.4---
1215 7:24 pmNNW 2.9 4.1----30.10- 53.8- 48.4---
1215 7:22 pmNNW 2.9 5.1----30.10- 53.8- 48.4---
1215 7:20 pmNNW 2.9 4.1----30.10- 54.0- 48.6---
1215 7:18 pmNNW 2.9 4.1----30.10- 54.0- 48.4---
1215 7:16 pm N 1.9 2.9----30.10- 54.0- 48.4---
1215 7:14 pm N 1.9 4.1----30.10- 54.0- 48.4---
1215 7:12 pm N 2.9 5.1----30.10- 54.0- 48.2---
1215 7:10 pm N 2.9 4.1----30.10- 54.0- 48.2---
1215 7:08 pm N 1.0 1.9----30.10- 54.1- 48.4---
1215 7:06 pm N 2.9 5.1----30.10- 54.1- 48.4---
1215 7:04 pm N 4.1 5.1----30.10- 54.1- 48.2---
1215 7:02 pm N 4.1 5.1----30.10- 54.3- 48.4---
1215 7:00 pm N 2.9 5.1----30.10- 54.3- 48.4---
1215 6:58 pm N 4.1 6.0----30.10- 54.5- 48.6---
1215 6:56 pm N 4.1 5.1----30.10- 54.5- 48.7---
1215 6:54 pmNNE 5.1 7.0----30.10- 54.5- 48.7---
1215 6:52 pmNNE 5.1 6.0----30.10- 54.7- 48.9---
1215 6:50 pmNNE 5.1 6.0----30.10- 54.7- 48.9---
1215 6:48 pm N 5.1 8.0----30.10+0.01 54.7- 48.9---
1215 6:46 pmNNE 7.0 7.0----30.10- 54.9- 49.3---
1215 6:44 pmNNE 7.0 8.0----30.10- 54.7- 49.1---
1215 6:42 pmNNE 7.0 8.9----30.10- 54.5- 48.9---
1215 6:40 pm N 7.0 8.9----30.10- 54.5- 49.1---
1215 6:38 pm N 6.0 8.0----30.10- 54.5- 48.9---
1215 6:36 pm N 6.0 7.0----30.10- 54.5- 49.1---
1215 6:34 pmNNE 7.0 8.0----30.10- 54.5- 49.1---
1215 6:32 pmNNE 7.0 7.0----30.10- 54.3- 48.7---
1215 6:30 pmNNE 7.0 7.0----30.10- 54.3- 48.7---
1215 6:28 pmNNE 7.0 8.0----30.10- 54.3- 48.7---
1215 6:26 pmNNE 7.0 8.0----30.10- 54.5- 48.7---
1215 6:24 pmNNE 7.0 8.0----30.10- 54.5- 48.9---
1215 6:22 pmNNE 7.0 8.0----30.10- 54.7- 49.1---
1215 6:20 pmNNE 8.0 8.9----30.10- 54.7- 49.3---
1215 6:18 pmNNE 7.0 8.9----30.10- 54.9- 49.5---
1215 6:16 pmNNE 7.0 8.0----30.10- 54.9- 49.5---
1215 6:14 pmNNE 7.0 8.0----30.10- 54.9- 49.5---
1215 6:12 pmNNE 6.0 8.0----30.10- 55.0- 49.8---
1215 6:10 pmNNE 6.0 7.0----30.10- 54.9- 49.6---
1215 6:08 pm N 5.1 7.0----30.11- 54.9- 49.8---
1215 6:06 pm N 4.1 7.0----30.11- 54.9- 50.0---
1215 6:04 pm N 1.0 2.9----30.11- 55.4- 50.5---
1215 6:02 pm- 0.0 1.9----30.11- 55.4- 50.5---
1215 6:00 pm- 0.0 1.9----30.11- 55.4- 50.5---
1215 5:58 pm N 1.0 2.9----30.11- 55.4- 50.4---
1215 5:56 pm N 1.0 1.9----30.11- 55.4- 50.4---
1215 5:54 pm N 1.0 1.9----30.11- 55.4- 50.4---
1215 5:52 pm N 1.9 2.9----30.10- 55.6- 50.5---
1215 5:50 pm N 1.9 4.1----30.10- 55.6- 50.4---
1215 5:48 pm N 1.0 2.9----30.10+0.01 55.8- 50.5---
1215 5:46 pm N 1.0 2.9----30.10- 55.8- 50.5---
1215 5:44 pm N 1.9 4.1----30.10- 55.8- 50.4---
1215 5:42 pm N 1.9 2.9----30.10- 55.9- 50.5---
1215 5:40 pm N 1.0 1.9----30.10- 56.1- 50.7---
1215 5:38 pm N 1.9 1.9----30.10- 56.3- 50.7---
1215 5:36 pm N 1.0 1.9----30.10- 56.5- 50.9---
1215 5:34 pm N 1.9 2.9----30.10- 56.7- 51.1---
1215 5:32 pm N 1.9 2.9----30.10- 56.8- 51.3---
1215 5:30 pm N 1.0 1.9----30.10- 56.8- 51.3---
1215 5:28 pmNNW 1.9 2.9----30.10- 57.0- 51.4---
1215 5:26 pmNNW 2.9 4.1----30.10- 57.2- 51.6---
1215 5:24 pmNNW 2.9 4.1----30.10- 57.2- 51.4---
1215 5:22 pmNNW 4.1 5.1----30.10- 57.2- 51.3---
1215 5:20 pmNNW 4.1 5.1----30.10- 57.2- 51.3---
1215 5:18 pmNNW 5.1 5.1----30.10- 57.2- 51.1---
1215 5:16 pm NW 4.1 5.1----30.10- 57.2- 51.3---
1215 5:14 pm NW 4.1 5.1----30.10- 57.0- 51.1---
1215 5:12 pm NW 4.1 4.1----30.10- 57.0- 51.1---
1215 5:10 pm NW 2.9 4.1----30.10- 57.2- 51.3---
1215 5:08 pm NW 2.9 4.1----30.10- 57.2- 51.3---
1215 5:06 pmWNW 4.1 4.1----30.10- 57.4- 51.4---
1215 5:04 pmWNW 2.9 4.1----30.10- 57.4- 51.3---
1215 5:02 pmWNW 2.9 4.1----30.10- 57.4- 51.3---
1215 5:00 pmWNW 2.9 4.1----30.10- 57.4- 51.3---
1215 4:58 pmWNW 1.9 2.9----30.10- 57.6- 51.4---
1215 4:56 pm NW 2.9 4.1----30.10- 57.6- 51.4---
1215 4:54 pm NW 4.1 5.1----30.10- 57.7- 51.6---
1215 4:52 pm NW 4.1 5.1----30.10- 57.7- 51.6---
1215 4:50 pmNNW 4.1 5.1----30.09- 57.7- 51.6---
1215 4:48 pm NW 5.1 7.0----30.09+0.00 57.7- 51.8---
1215 4:46 pm NW 5.1 7.0----30.10- 57.7- 51.8---
1215 4:44 pm NW 6.0 7.0----30.10- 57.7- 52.0---
1215 4:42 pm NW 6.0 7.0----30.10- 57.9- 52.0---
1215 4:40 pm NW 5.1 7.0----30.10- 57.9- 52.0---
1215 4:38 pm NW 5.1 6.0----30.09- 57.9- 52.0---
1215 4:36 pm NW 5.1 7.0----30.09- 57.9- 51.8---
1215 4:34 pm NW 6.0 7.0----30.09- 58.1- 52.0---
1215 4:32 pm NW 7.0 8.9----30.09- 58.1- 52.0---
1215 4:30 pm NW 8.0 9.9----30.09- 58.3- 52.0---
1215 4:28 pm NW 7.0 8.9----30.09- 58.3- 51.8---
1215 4:26 pm NW 7.0 8.9----30.09- 58.1- 52.0---
1215 4:24 pm NW 7.0 8.9----30.09- 58.3- 52.0---
1215 4:22 pm NW 7.0 8.9----30.09- 58.3- 51.8---
1215 4:20 pm NW 6.0 8.0----30.09- 58.3- 52.2---
1215 4:18 pm NW 8.0 8.9----30.09- 58.3- 52.0---
1215 4:16 pm NW 6.0 7.0----30.09- 58.3- 52.0---
1215 4:14 pm NW 6.0 7.0----30.09- 58.5- 52.0---
1215 4:12 pm NW 5.1 7.0----30.09- 58.5- 52.0---
1215 4:10 pmWNW 6.0 8.0----30.09- 58.5- 51.8---
1215 4:08 pmWNW 5.1 6.0----30.09- 58.5- 52.0---
1215 4:06 pmWNW 6.0 7.0----30.09- 58.6- 52.2---
1215 4:04 pmWNW 8.0 9.9----30.09- 58.5- 52.0---
1215 4:02 pmWNW 8.0 8.9----30.08- 58.5- 52.2---
1215 4:00 pm W 7.0 8.9----30.09- 58.6- 52.3---
1215 3:58 pmWNW 8.9 9.9----30.09- 58.5- 52.0---
1215 3:56 pmWNW 8.9 11.1----30.08- 58.3- 52.0---
1215 3:54 pmWNW 8.0 11.1----30.08- 58.3- 52.0---
1215 3:52 pm W 8.9 9.9----30.08- 58.3- 52.2---
1215 3:50 pm W 9.9 12.0----30.08- 58.3- 52.2---
1215 3:48 pm W 11.1 13.0----30.08-0.01 58.3- 52.0---
1215 3:46 pm W 11.1 13.0----30.08- 58.3- 52.0---
1215 3:44 pm W 12.0 14.0----30.08- 58.1- 51.6---
1215 3:42 pm W 12.0 14.0----30.08- 58.3- 51.8---
1215 3:40 pm W 12.0 15.0----30.08- 58.3- 52.0---
1215 3:38 pm W 13.0 15.0----30.08- 58.3- 51.8---
1215 3:36 pm W 12.0 15.0----30.08- 58.5- 51.8---
1215 3:34 pm W 12.0 14.0----30.09- 58.6- 51.6---
1215 3:32 pm W 13.0 15.0----30.08- 58.8- 51.3---
1215 3:30 pm W 11.1 14.0----30.08- 59.0- 51.4---
1215 3:28 pm W 9.9 12.0----30.08- 58.8- 51.3---
1215 3:26 pm W 12.0 14.0----30.08- 58.6- 51.3---
1215 3:24 pm W 11.1 13.0----30.08- 58.6- 51.4---
1215 3:22 pm W 11.1 14.0----30.08- 58.6- 51.4---
1215 3:20 pm W 13.0 15.0----30.08- 58.6- 51.4---
1215 3:18 pm W 12.0 14.0----30.08- 58.6- 51.1---
1215 3:16 pm W 12.0 15.0----30.08- 58.5- 51.1---
1215 3:14 pm W 13.0 15.9----30.08- 58.5- 51.1---
1215 3:12 pm W 13.0 15.0----30.08- 58.5- 51.3---
1215 3:10 pm W 13.0 15.0----30.08- 58.6- 50.9---
1215 3:08 pm W 12.0 15.0----30.08- 58.6- 50.9---
1215 3:06 pm W 13.0 15.9----30.09- 58.6- 50.7---
1215 3:04 pm W 11.1 13.0----30.09- 58.6- 51.1---
1215 3:02 pm W 11.1 15.0----30.09- 58.5- 51.1---
1215 3:00 pm W 11.1 13.0----30.09- 58.6- 51.1---
1215 2:58 pm W 9.9 12.0----30.09- 58.8- 51.3---
1215 2:56 pm W 11.1 13.0----30.09- 59.0- 51.1---
1215 2:54 pmWNW 11.1 13.0----30.09- 59.0- 51.1---
1215 2:52 pm W 12.0 13.0----30.09- 59.0- 50.9---
1215 2:50 pmWNW 9.9 12.0----30.09- 59.2- 51.1---
1215 2:48 pmWNW 9.9 12.0----30.09-0.03 59.2- 50.9---
1215 2:46 pmWNW 11.1 13.0----30.09- 59.2- 50.7---
1215 2:44 pmWNW 9.9 11.1----30.09- 59.4- 50.7---
1215 2:42 pmWNW 8.9 12.0----30.09- 59.2- 50.4---
1215 2:40 pmWNW 8.9 9.9----30.09- 59.2- 50.5---
1215 2:38 pmWNW 8.9 9.9----30.09- 59.2- 50.4---
1215 2:36 pmWNW 9.9 12.0----30.08- 59.4- 50.2---
1215 2:34 pm W 9.9 12.0----30.08- 59.4- 50.0---
1215 2:32 pmWNW 8.9 11.1----30.08- 59.5- 50.0---
1215 2:30 pmWNW 9.9 11.1----30.08- 59.7- 50.0---
1215 2:28 pm W 9.9 11.1----30.08- 59.9- 50.4---
1215 2:26 pm W 8.0 9.9----30.08- 59.9- 50.5---
1215 2:24 pmWNW 8.0 8.9----30.08- 59.9- 50.5---
1215 2:22 pmWNW 8.0 9.9----30.08- 60.1- 50.4---
1215 2:20 pmWNW 7.0 8.9----30.08- 60.1- 50.5---
1215 2:18 pmWNW 7.0 8.0----30.08- 59.9- 50.4---
1215 2:16 pmWNW 7.0 8.9----30.08- 59.9- 50.7---
1215 2:14 pmWNW 7.0 8.9----30.08- 59.9- 50.5---
1215 2:12 pmWNW 7.0 8.9----30.08- 59.9- 50.5---
1215 2:10 pmWNW 7.0 8.9----30.08- 59.9- 50.4---
1215 2:08 pmWNW 7.0 8.9----30.08- 59.9- 50.9---
1215 2:06 pmWNW 7.0 8.9----30.08- 59.9- 50.7---
1215 2:04 pm W 6.0 8.0----30.09- 59.9- 51.1---
1215 2:02 pm W 7.0 8.9----30.09- 59.9- 51.3---
1215 2:00 pmWNW 7.0 8.9----30.09- 59.9- 51.1---
1215 1:58 pmWNW 4.1 7.0----30.09- 59.9- 51.3---
1215 1:56 pm W 2.9 5.1----30.09- 59.9- 51.6---
1215 1:54 pm W 4.1 5.1----30.09- 59.7- 51.3---
1215 1:52 pm W 2.9 5.1----30.09- 59.9- 51.4---
1215 1:50 pm W 5.1 8.0----30.09- 59.9- 51.6---
1215 1:48 pmWNW 5.1 7.0----30.09- 59.7- 50.9---
1215 1:46 pm W 4.1 5.1----30.09- 59.5- 51.4---
1215 1:44 pm W 5.1 7.0----30.09- 59.5- 51.4---
1215 1:42 pmWNW 6.0 7.0----30.09- 59.7- 50.9---
1215 1:40 pmWNW 6.0 7.0----30.09- 59.5- 50.9---
1215 1:38 pmWNW 7.0 8.9----30.09- 59.4- 50.7---
1215 1:36 pmWNW 8.9 9.9----30.09- 59.4- 50.7---
1215 1:34 pmWNW 8.0 8.9----30.09- 59.4- 50.7---
1215 1:32 pmWNW 7.0 8.9----30.09- 59.2- 50.7---
1215 1:30 pmWNW 6.0 8.0----30.09- 59.2- 50.7---
1215 1:28 pmWNW 7.0 7.0----30.09- 59.2- 50.7---
1215 1:26 pmWNW 8.0 8.9----30.09- 59.2- 50.5---
1215 1:24 pmWNW 7.0 8.9----30.09- 59.2- 50.5---
1215 1:22 pmWNW 6.0 8.0----30.09- 59.4- 50.9---
1215 1:20 pmWNW 7.0 8.0----30.09- 59.4- 50.9---
1215 1:18 pmWNW 6.0 7.0----30.09- 59.2- 50.5---
1215 1:16 pm W 4.1 6.0----30.09- 59.0- 50.9---
1215 1:14 pmWNW 5.1 7.0----30.09- 58.8- 50.5---
1215 1:12 pm W 2.9 7.0----30.10- 58.6- 50.9---
1215 1:10 pm SW 2.9 5.1----30.10- 58.5- 51.1---
1215 1:08 pmWSW 4.1 8.9----30.10- 58.3- 50.7---
1215 1:06 pmWSW 6.0 7.0----30.10- 58.1- 50.7---
1215 1:04 pm SW 7.0 8.9----30.10- 57.7- 50.4---
1215 1:02 pm SW 7.0 9.9----30.10- 57.6- 50.0---
1215 1:00 pm SW 8.0 11.1----30.10- 57.6- 50.4---
121512:58 pm SW 8.0 9.9----30.10- 57.2- 50.2---
121512:56 pm SW 8.9 12.0----30.10- 56.8- 49.6---
121512:54 pm SW 8.9 9.9----30.10- 56.7- 49.6---
121512:52 pm SW 9.9 9.9----30.10- 56.5- 49.3---
121512:50 pm SW 9.9 11.1----30.10- 56.3- 48.9---
121512:48 pmSSW 8.9 11.1----30.10- 56.3- 49.1---
121512:46 pmSSW 8.9 11.1----30.10- 56.3- 49.1---
121512:44 pmSSW 8.9 11.1----30.10- 56.5- 49.3---
121512:42 pmSSW 8.9 11.1----30.11- 56.3- 48.7---
121512:40 pmSSW 8.9 9.9----30.11- 56.5- 48.9---
121512:38 pmSSW 8.9 9.9----30.11- 56.5- 49.1---
121512:36 pmSSW 8.9 9.9----30.11- 56.3- 48.7---
121512:34 pmSSW 8.9 11.1----30.10- 56.3- 48.9---
121512:32 pmSSW 8.9 9.9----30.11- 56.3- 48.7---
121512:30 pmSSW 8.9 9.9----30.11- 56.1- 48.9---
121512:28 pmSSW 8.9 9.9----30.11- 56.5- 49.1---
121512:26 pmSSW 8.9 9.9----30.11- 56.3- 48.9---
121512:24 pmSSW 8.9 9.9----30.11- 56.3- 48.9---
121512:22 pmSSW 8.0 8.9----30.11- 56.3- 48.7---
121512:20 pmSSW 7.0 8.9----30.11- 56.5- 49.1---
121512:18 pmSSW 7.0 8.0----30.11- 56.3- 48.9---
121512:16 pmSSW 7.0 8.0----30.11- 56.1- 48.7---
121512:14 pmSSW 6.0 7.0----30.11- 56.5- 49.1---
121512:12 pmSSW 6.0 7.0----30.11- 56.3- 48.9---
121512:10 pmSSW 6.0 7.0----30.11- 56.1- 48.7---
121512:08 pmSSW 6.0 7.0----30.11- 56.3- 49.1---
121512:06 pmSSW 6.0 7.0----30.11- 56.1- 48.9---
121512:04 pmSSW 6.0 7.0----30.11- 56.1- 48.6---
121512:02 pmSSW 6.0 7.0----30.11- 55.9- 48.6---
121512:00 pmSSW 6.0 7.0----30.11- 55.9- 48.7---
121511:58 amSSW 6.0 8.9----30.12- 56.1- 48.7---
121511:56 amSSW 6.0 7.0----30.12- 55.9- 48.6---
121511:54 amSSW 6.0 7.0----30.12- 55.8- 48.6---
121511:52 amSSW 5.1 7.0----30.12- 55.9- 48.7---
121511:50 amSSW 5.1 6.0----30.12- 55.9- 48.7---
121511:48 amSSW 5.1 6.0----30.12-0.02 55.9- 48.6---
121511:46 amSSW 4.1 5.1----30.12- 55.8- 48.6---
121511:44 amSSW 4.1 5.1----30.12- 55.8- 48.6---
121511:42 amSSW 4.1 5.1----30.12- 55.6- 48.2---
121511:40 am SW 5.1 5.1----30.12- 55.4- 47.8---
121511:38 amSSW 5.1 5.1----30.12- 55.6- 47.3---
121511:36 amSSW 4.1 5.1----30.12- 55.8- 47.1---
121511:34 amSSW 4.1 4.1----30.12- 56.1- 46.9---
121511:32 am S 2.9 4.1----30.12- 56.5- 46.9---
121511:30 am S 1.9 2.9----30.12- 56.7- 47.1---
121511:28 am S 1.9 2.9----30.12- 56.8- 47.3---
121511:26 amSSW 1.0 1.9----30.12- 57.0- 47.5---
121511:24 amSSW 1.0 1.9----30.12- 57.0- 47.3---
121511:22 amSSW 1.0 1.9----30.12- 57.2- 47.3---
121511:20 am- 0.0 1.9----30.12- 57.2- 47.8---
121511:18 am- 0.0 1.9----30.12- 57.2- 48.0---
121511:16 am- 0.0 1.9----30.12- 57.2- 48.0---
121511:14 am- 0.0 1.0----30.12- 57.2- 47.8---
121511:12 am- 0.0 1.9----30.13- 57.2- 47.8---
121511:10 am- 0.0 1.9----30.13- 57.2- 47.8---
121511:08 am- 0.0 1.0----30.13- 56.8- 47.7---
121511:06 am- 0.0 1.0----30.13- 56.8- 47.5---
121511:04 am- 0.0 1.0----30.13- 56.7- 47.3---
121511:02 am- 0.0 1.0----30.13- 56.8- 47.5---
121511:00 am- 0.0 1.0----30.13- 57.2- 48.0---
121510:58 am- 0.0 1.0----30.13- 57.2- 48.6---
121510:56 am- 0.0 1.0----30.12- 57.2- 48.7---
121510:54 am- 0.0 1.9----30.12- 57.0- 48.7---
121510:52 am- 0.0 1.0----30.12- 56.8- 49.3---
121510:50 am- 0.0 1.9----30.12- 56.5- 49.3---
121510:48 am- 0.0 1.0----30.12+0.01 55.9- 48.9---
121510:46 am- 0.0 1.0----30.12- 55.4- 48.4---
121510:44 amSSW 1.0 1.9----30.12- 55.0- 48.4---
121510:42 am SW 1.0 1.9----30.12- 54.5- 47.8---
121510:40 am- 0.0 1.0----30.13- 54.5- 48.0---
121510:38 am- 0.0 1.0----30.13- 54.5- 48.0---
121510:36 am- 0.0 1.9----30.13- 54.5- 48.0---
121510:34 am SW 1.0 1.9----30.13- 54.3- 47.7---
121510:32 am- 0.0 1.9----30.13- 54.3- 47.7---
121510:30 am- 0.0 1.9----30.13- 54.5- 47.8---
121510:28 am- 0.0 1.0----30.13- 54.5- 47.7---
121510:26 am- 0.0 1.0----30.13- 54.5- 47.8---
121510:24 am- 0.0 1.9----30.13- 54.5- 47.8---
121510:22 amESE 1.0 1.9----30.13- 54.5- 48.0---
121510:20 amESE 1.9 4.1----30.13- 54.5- 47.8---
121510:18 amESE 2.9 4.1----30.13- 54.5- 47.5---
121510:16 amESE 2.9 4.1----30.13- 54.5- 47.5---
121510:14 amESE 4.1 5.1----30.13- 54.5- 47.5---
121510:12 amESE 4.1 5.1----30.14- 54.3- 47.7---
121510:10 amESE 2.9 5.1----30.14- 54.3- 48.2---
121510:08 amESE 4.1 4.1----30.14- 54.3- 48.7---
121510:06 amSSE 1.9 2.9----30.14- 54.5- 49.8---
121510:04 amSSE 1.9 2.9----30.14- 54.5- 49.8---
121510:02 am SE 2.9 4.1----30.14- 54.5- 49.6---
121510:00 amSSE 2.9 4.1----30.14- 54.5- 49.8---
1215 9:58 am SE 2.9 4.1----30.14- 54.5- 49.5---
1215 9:56 am SE 2.9 4.1----30.14- 54.5- 49.8---
1215 9:54 amESE 2.9 5.1----30.14- 54.5- 50.0---
1215 9:52 amESE 2.9 4.1----30.14- 54.3- 49.6---
1215 9:50 am E 1.9 2.9----30.14- 54.5- 50.4---
1215 9:48 am NE 1.0 1.9----30.14+0.04 54.1- 50.2---
1215 9:46 amENE 1.0 1.9----30.14- 54.0- 50.2---
1215 9:44 am NE 1.0 1.9----30.14- 53.8- 50.2---
1215 9:42 am- 0.0 1.9----30.14- 53.8- 50.5---
1215 9:40 am- 0.0 1.9----30.14- 53.8- 50.5---
1215 9:38 am- 0.0 1.9----30.14- 53.4- 50.4---
1215 9:36 amENE 1.0 1.9----30.14- 53.2- 50.5---
1215 9:34 amENE 1.0 1.9----30.14- 53.2- 50.7---
1215 9:32 am- 0.0 1.9----30.14- 52.9- 50.5---
1215 9:30 am NE 1.0 1.9----30.14- 52.5- 50.2---
1215 9:28 am- 0.0 1.9----30.14- 52.2- 50.0---
1215 9:26 amENE 1.9 2.9----30.14- 52.0- 49.6---
1215 9:24 am NE 2.9 4.1----30.14- 51.3- 48.9---
1215 9:22 am NE 2.9 4.1----30.14- 51.3- 49.1---
1215 9:20 am NE 2.9 4.1----30.14- 51.1- 49.1---
1215 9:18 amNNE 1.9 4.1----30.14- 50.9- 49.1---
1215 9:16 am NE 2.9 4.1----30.14- 50.5- 48.7---
1215 9:14 amNNE 2.9 4.1----30.14- 50.4- 48.6---
1215 9:12 amNNE 4.1 7.0----30.14- 49.8- 48.0---
1215 9:10 amNNE 5.1 7.0----30.14- 49.6- 48.0---
1215 9:08 amNNE 6.0 7.0----30.14- 49.6- 47.8---
1215 9:06 amNNE 6.0 7.0----30.14- 49.5- 47.7---
1215 9:04 amNNE 7.0 8.0----30.14- 49.3- 47.5---
1215 9:02 amNNE 7.0 8.0----30.14- 49.1- 47.3---
1215 9:00 amNNE 7.0 8.0----30.14- 48.9- 47.3---
1215 8:58 amNNE 7.0 8.9----30.14- 49.1- 47.5---
1215 8:56 amNNE 8.0 8.9----30.14- 48.7- 47.1---
1215 8:54 amNNE 8.9 9.9----30.14- 48.6- 47.1---
1215 8:52 amNNE 8.9 9.9----30.14- 48.6- 47.1---
1215 8:50 amNNE 8.0 8.9----30.14- 48.0- 46.6---
1215 8:48 amNNE 8.0 8.9----30.14+0.04 47.8- 46.4---
1215 8:46 amNNE 7.0 8.9----30.14- 47.5- 46.0---
1215 8:44 amNNE 7.0 8.0----30.14- 47.5- 46.0---
1215 8:42 amNNE 6.0 7.0----30.14- 47.5- 46.0---
1215 8:40 amNNE 7.0 8.0----30.14- 47.3- 45.7---
1215 8:38 amNNE 7.0 7.0----30.14- 47.1- 45.5---
1215 8:36 amNNE 6.0 7.0----30.14- 47.3- 45.9---
1215 8:34 amNNE 6.0 7.0----30.14- 47.3- 46.0---
1215 8:32 amNNE 6.0 7.0----30.14- 47.3- 45.9---
1215 8:30 amNNE 6.0 7.0----30.14- 46.9- 45.5---
1215 8:28 amNNE 6.0 7.0----30.14- 46.9- 45.5---
1215 8:26 amNNE 7.0 8.0----30.14- 46.8- 45.3---
1215 8:24 amNNE 7.0 8.0----30.14- 46.6- 45.1---
1215 8:22 am N 7.0 7.0----30.14- 46.2- 44.8---
1215 8:20 am N 7.0 8.0----30.14- 45.7- 44.2---
1215 8:18 amNNE 7.0 8.9----30.13- 45.5- 44.1---
1215 8:16 amNNE 7.0 8.0----30.13- 45.5- 44.1---
1215 8:14 amNNE 7.0 8.0----30.13- 45.3- 43.9---
1215 8:12 amNNE 7.0 7.0----30.13- 45.7- 44.2---
1215 8:10 amNNE 7.0 8.0----30.13- 45.9- 44.4---
1215 8:08 amNNE 7.0 7.0----30.13- 45.7- 44.2---
1215 8:06 amNNE 7.0 7.0----30.13- 45.3- 43.9---
1215 8:04 am N 6.0 7.0----30.12- 45.1- 43.7---
1215 8:02 am N 6.0 7.0----30.12- 45.5- 44.1---
1215 8:00 am N 6.0 7.0----30.12- 45.5- 44.1---
1215 7:58 am N 6.0 7.0----30.12- 45.5- 44.1---
1215 7:56 am N 5.1 7.0----30.12- 45.3- 43.9---
1215 7:54 am N 6.0 7.0----30.11- 45.1- 43.7---
1215 7:52 am N 6.0 7.0----30.11- 45.1- 43.7---
1215 7:50 am N 6.0 8.0----30.11- 45.1- 43.7---
1215 7:48 am N 6.0 7.0----30.11+0.00 45.3- 43.9---
1215 7:46 amNNE 6.0 7.0----30.11- 45.1- 43.7---
1215 7:44 amNNE 6.0 7.0----30.11- 45.1- 43.5---
1215 7:42 amNNE 6.0 7.0----30.11- 45.3- 43.7---
1215 7:40 amNNE 6.0 7.0----30.11- 45.3- 43.7---
1215 7:38 amNNE 5.1 7.0----30.11- 45.3- 43.7---
1215 7:36 am N 5.1 6.0----30.11- 45.5- 43.9---
1215 7:34 am N 2.9 5.1----30.11- 46.0- 44.6---
1215 7:32 am N 2.9 5.1----30.11- 46.2- 44.8---
1215 7:30 am N 2.9 5.1----30.11- 46.0- 44.6---
1215 7:28 am N 4.1 5.1----30.11- 45.9- 44.2---
1215 7:26 am N 4.1 5.1----30.11- 45.5- 43.9---
1215 7:24 am N 4.1 5.1----30.11- 45.5- 43.9---
1215 7:22 amNNE 5.1 5.1----30.10- 45.5- 43.9---
1215 7:20 am N 5.1 6.0----30.10- 45.3- 43.9---
1215 7:18 amNNE 5.1 6.0----30.10- 45.1- 43.5---
1215 7:16 amNNE 5.1 6.0----30.10- 45.0- 43.2---
1215 7:14 am N 5.1 6.0----30.10- 45.0- 43.2---
1215 7:12 am N 4.1 5.1----30.10- 45.0- 43.2---
1215 7:10 am N 4.1 7.0----30.10- 45.0- 43.2---
1215 7:08 am N 4.1 5.1----30.10- 44.8- 43.0---
1215 7:06 am N 4.1 6.0----30.10- 44.8- 43.0---
1215 7:04 am N 4.1 5.1----30.10- 44.8- 43.0---
1215 7:02 am N 5.1 7.0----30.10- 45.1- 43.3---
1215 7:00 am N 5.1 6.0----30.10- 45.1- 43.3---
1215 6:58 am N 5.1 7.0----30.10- 45.1- 43.5---
1215 6:56 am N 5.1 7.0----30.10- 45.1- 43.3---
1215 6:54 am N 5.1 7.0----30.10- 44.8- 43.0---
1215 6:52 am N 5.1 7.0----30.10- 45.0- 43.2---
1215 6:50 am N 6.0 7.0----30.10- 44.8- 42.8---
1215 6:48 am N 6.0 7.0----30.10-0.02 45.0- 43.0---
1215 6:46 amNNE 6.0 7.0----30.10- 45.1- 43.3---
1215 6:44 am N 6.0 7.0----30.10- 45.1- 43.2---
1215 6:42 am N 6.0 7.0----30.10- 45.1- 43.2---
1215 6:40 amNNE 6.0 7.0----30.10- 45.1- 43.2---
1215 6:38 amNNE 6.0 7.0----30.10- 45.1- 43.3---
1215 6:36 amNNE 6.0 7.0----30.10- 45.3- 43.5---
1215 6:34 amNNE 7.0 7.0----30.10- 45.1- 43.3---
1215 6:32 amNNE 6.0 7.0----30.10- 45.5- 43.7---
1215 6:30 amNNE 7.0 8.0----30.10- 45.9- 44.1---
1215 6:28 amNNE 6.0 7.0----30.10- 45.7- 43.9---
1215 6:26 amNNE 6.0 7.0----30.10- 45.5- 43.5---
1215 6:24 amNNE 7.0 7.0----30.10- 45.5- 43.5---
1215 6:22 amNNE 7.0 7.0----30.10- 45.7- 43.7---
1215 6:20 amNNE 6.0 7.0----30.10- 45.9- 43.9---
1215 6:18 amNNE 6.0 7.0----30.10- 46.0- 44.1---
1215 6:16 amNNE 6.0 7.0----30.10- 46.2- 44.2---
1215 6:14 amNNE 6.0 7.0----30.10- 46.0- 44.1---
1215 6:12 amNNE 7.0 8.0----30.10- 46.0- 44.1---
1215 6:10 amNNE 7.0 8.0----30.10- 46.0- 44.1---
1215 6:08 amNNE 7.0 7.0----30.10- 46.2- 44.2---
1215 6:06 amNNE 6.0 7.0----30.10- 46.2- 44.2---
1215 6:04 amNNE 6.0 7.0----30.10- 46.4- 44.4---
1215 6:02 amNNE 7.0 7.0----30.10- 46.2- 44.2---
1215 6:00 amNNE 7.0 7.0----30.10- 46.4- 44.2---
1215 5:58 amNNE 6.0 7.0----30.10- 46.6- 44.6---
1215 5:56 amNNE 7.0 7.0----30.10- 46.8- 44.8---
1215 5:54 amNNE 7.0 7.0----30.10- 46.6- 44.6---
1215 5:52 amNNE 7.0 8.0----30.10- 46.2- 44.2---
1215 5:50 amNNE 7.0 7.0----30.10- 46.4- 44.2---
1215 5:48 amNNE 7.0 8.0----30.10-0.03 46.2- 44.1---
1215 5:46 amNNE 7.0 8.0----30.10- 46.4- 44.2---
1215 5:44 amNNE 7.0 8.0----30.10- 46.6- 44.4---
1215 5:42 amNNE 7.0 8.0----30.10- 46.8- 44.8---
1215 5:40 amNNE 7.0 8.0----30.10- 47.1- 45.1---
1215 5:38 amNNE 8.0 9.9----30.10- 46.9- 45.0---
1215 5:36 amNNE 8.0 8.9----30.10- 46.6- 44.4---
1215 5:34 amNNE 7.0 8.9----30.10- 46.2- 44.1---
1215 5:32 amNNE 7.0 8.9----30.10- 46.0- 43.9---
1215 5:30 amNNE 7.0 8.0----30.11- 46.6- 44.4---
1215 5:28 amNNE 7.0 8.0----30.11- 46.9- 44.8---
1215 5:26 amNNE 6.0 7.0----30.11- 46.9- 44.8---
1215 5:24 amNNE 6.0 7.0----30.11- 46.8- 44.6---
1215 5:22 amNNE 5.1 6.0----30.11- 46.9- 44.8---
1215 5:20 amNNE 5.1 6.0----30.11- 47.3- 45.1---
1215 5:18 amNNE 5.1 6.0----30.11- 47.5- 45.5---
1215 5:16 am N 4.1 5.1----30.11- 47.5- 45.5---
1215 5:14 am N 2.9 5.1----30.11- 47.3- 45.3---
1215 5:12 am N 5.1 7.0----30.11- 47.3- 45.3---
1215 5:10 am N 5.1 6.0----30.11- 47.3- 45.1---
1215 5:08 am N 4.1 6.0----30.11- 47.3- 45.1---
1215 5:06 am N 5.1 7.0----30.11- 47.3- 45.3---
1215 5:04 am N 5.1 7.0----30.11- 47.3- 45.0---
1215 5:02 am N 5.1 6.0----30.11- 47.3- 45.1---
1215 5:00 am N 5.1 7.0----30.11- 47.3- 45.1---
1215 4:58 am N 6.0 7.0----30.11- 47.3- 45.1---
1215 4:56 am N 6.0 7.0----30.11- 47.3- 45.1---
1215 4:54 am N 6.0 7.0----30.11- 47.3- 45.1---
1215 4:52 am N 6.0 7.0----30.11- 47.3- 45.1---
1215 4:50 am N 6.0 7.0----30.11- 47.3- 45.1---
1215 4:48 am N 6.0 7.0----30.11-0.04 47.5- 45.3---
1215 4:46 am N 6.0 7.0----30.11- 47.5- 45.5---
1215 4:44 am N 6.0 7.0----30.11- 47.5- 45.5---
1215 4:42 am N 7.0 8.9----30.11- 47.3- 45.1---
1215 4:40 amNNE 7.0 8.9----30.11- 47.3- 45.0---
1215 4:38 amNNE 7.0 8.9----30.11- 47.1- 44.8---
1215 4:36 amNNE 8.0 8.9----30.10- 46.9- 44.6---
1215 4:34 amNNE 7.0 8.9----30.10- 46.8- 44.2---
1215 4:32 amNNE 7.0 8.9----30.11- 46.6- 44.1---
1215 4:30 amNNE 7.0 8.0----30.11- 46.8- 44.2---
1215 4:28 amNNE 6.0 7.0----30.11- 46.9- 44.4---
1215 4:26 amNNE 5.1 7.0----30.11- 47.3- 45.0---
1215 4:24 am N 5.1 7.0----30.11- 47.7- 45.3---
1215 4:22 am N 6.0 7.0----30.11- 47.8- 45.5---
1215 4:20 am N 6.0 7.0----30.11- 48.2- 45.9---
1215 4:18 am N 5.1 6.0----30.11- 48.4- 46.0---
1215 4:16 am N 5.1 7.0----30.11- 48.4- 46.0---
1215 4:14 am N 6.0 7.0----30.11- 48.2- 45.9---
1215 4:12 amNNE 7.0 7.0----30.11- 48.4- 46.0---
1215 4:10 amNNE 7.0 8.0----30.11- 48.2- 45.9---
1215 4:08 am N 7.0 8.0----30.11- 48.4- 46.0---
1215 4:06 am N 7.0 8.9----30.11- 48.6- 46.2---
1215 4:04 am N 7.0 8.9----30.11- 48.4- 46.0---
1215 4:02 am N 6.0 7.0----30.11- 48.7- 46.4---
1215 4:00 am N 6.0 8.0----30.11- 48.6- 46.2---
1215 3:58 am N 6.0 7.0----30.11- 48.9- 46.6---
1215 3:56 am N 5.1 7.0----30.11- 48.7- 46.4---
1215 3:54 am N 5.1 7.0----30.11- 48.4- 45.9---
1215 3:52 am N 5.1 7.0----30.11- 48.6- 46.2---
1215 3:50 am N 5.1 7.0----30.12- 48.6- 46.0---
1215 3:48 am N 6.0 8.9----30.12-0.03 48.4- 45.9---
1215 3:46 amNNE 7.0 8.9----30.12- 48.4- 45.9---
1215 3:44 amNNE 6.0 7.0----30.12- 48.4- 45.9---
1215 3:42 amNNE 7.0 7.0----30.12- 48.4- 45.9---
1215 3:40 am N 7.0 8.9----30.12- 48.7- 46.4---
1215 3:38 am N 7.0 8.9----30.12- 48.7- 46.4---
1215 3:36 am N 7.0 8.9----30.12- 48.6- 46.2---
1215 3:34 am N 7.0 8.9----30.12- 48.6- 46.0---
1215 3:32 am N 7.0 8.9----30.12- 48.6- 46.0---
1215 3:30 am N 7.0 8.9----30.12- 48.6- 46.2---
1215 3:28 am N 7.0 8.9----30.12- 48.4- 45.9---
1215 3:26 amNNE 7.0 8.9----30.12- 48.4- 45.9---
1215 3:24 amNNE 7.0 8.0----30.12- 48.6- 46.0---
1215 3:22 amNNE 8.0 8.9----30.12- 48.6- 46.0---
1215 3:20 amNNE 7.0 8.9----30.12- 48.7- 46.2---
1215 3:18 amNNE 7.0 8.0----30.12- 48.9- 46.4---
1215 3:16 amNNE 6.0 7.0----30.12- 48.7- 46.2---
1215 3:14 amNNE 5.1 7.0----30.12- 48.7- 46.2---
1215 3:12 am N 6.0 7.0----30.12- 48.9- 46.4---
1215 3:10 amNNE 6.0 7.0----30.12- 48.7- 46.2---
1215 3:08 amNNE 6.0 7.0----30.12- 48.9- 46.4---
1215 3:06 amNNE 7.0 8.0----30.12- 48.9- 46.6---
1215 3:04 amNNE 7.0 8.9----30.12- 48.6- 46.0---
1215 3:02 amNNE 8.0 9.9----30.12- 48.4- 45.9---
1215 3:00 amNNE 8.9 9.9----30.12- 48.2- 45.5---
1215 2:58 amNNE 8.9 9.9----30.12- 48.4- 45.9---
1215 2:56 amNNE 8.0 9.9----30.12- 48.7- 46.2---
1215 2:54 amNNE 7.0 8.9----30.13- 48.9- 46.4---
1215 2:52 amNNE 7.0 7.0----30.13- 48.9- 46.4---
1215 2:50 am N 7.0 8.0----30.13- 48.7- 46.2---
1215 2:48 am N 7.0 8.0----30.13- 48.9- 46.4---
1215 2:46 amNNE 7.0 8.9----30.13- 49.1- 46.6---
1215 2:44 am N 8.0 8.9----30.13- 49.1- 46.6---
1215 2:42 am N 7.0 8.9----30.13- 48.9- 46.4---
1215 2:40 amNNE 7.0 7.0----30.13- 48.9- 46.2---
1215 2:38 am N 6.0 8.0----30.13- 48.9- 46.2---
1215 2:36 amNNE 6.0 7.0----30.13- 48.9- 46.2---
1215 2:34 amNNE 6.0 7.0----30.13- 48.9- 46.2---
1215 2:32 amNNE 7.0 8.0----30.14- 48.9- 46.2---
1215 2:30 am N 7.0 8.9----30.14- 48.7- 46.0---
1215 2:28 am N 6.0 8.0----30.14- 48.7- 46.0---
1215 2:26 am N 5.1 7.0----30.14- 48.7- 45.9---
1215 2:24 am N 5.1 7.0----30.14- 48.7- 45.9---
1215 2:22 am N 6.0 7.0----30.14- 48.7- 45.9---
1215 2:20 am N 6.0 7.0----30.14- 48.9- 46.0---
1215 2:18 am N 6.0 8.0----30.14- 48.9- 46.0---
1215 2:16 am N 7.0 8.0----30.14- 49.3- 46.4---
1215 2:14 am N 7.0 8.0----30.14- 49.1- 46.2---
1215 2:12 am N 5.1 7.0----30.14- 49.3- 46.4---
1215 2:10 am N 5.1 7.0----30.14- 49.3- 46.4---
1215 2:08 am N 6.0 8.9----30.14- 49.1- 46.2---
1215 2:06 am N 6.0 8.0----30.14- 48.9- 45.9---
1215 2:04 am N 6.0 7.0----30.14- 49.1- 46.0---
1215 2:02 am N 5.1 7.0----30.14- 49.1- 46.0---
1215 2:00 am N 5.1 7.0----30.14- 49.1- 46.0---
1215 1:58 am N 5.1 7.0----30.14- 48.9- 45.7---
1215 1:56 am N 6.0 7.0----30.14- 48.9- 45.7---
1215 1:54 am N 5.1 7.0----30.15- 49.1- 45.9---
1215 1:52 am N 6.0 8.0----30.15- 49.1- 45.9---
1215 1:50 am N 6.0 7.0----30.15- 49.3- 45.9---

Solar Radiation Conditions at CPXC1 as of
(2:44 am PST)
1044 GMT on 12/16/2018:
     

Click on the graph icon in the table below to see a time series plot of the last five days of that observation.

5-day plot - Short Wave Radiation 1Short Wave Radiation 1 (SRAD1): 5.1watts/meter2
Previous observations
5-day plot - Short Wave Radiation 1 5-day plot - Short Wave Radiation 2 5-day plot - Long Wave Radiation
MM   DD    TIME
(PST)
  SRAD1
w/m2
   SWRAD
w/m2
    LWRAD
w/m2
12162:34 am 0.4--
12162:24 am 0.4--
12162:14 am 0.4--
12162:02 am 0.4--
12161:52 am 0.4--
12161:42 am 0.4--
12161:32 am 0.4--
12161:22 am 0.4--
12161:02 am 5.1--
121612:52 am 0.4--
121612:42 am 0.4--
121612:32 am 0.4--
121612:00 am 0.4--
121511:50 pm 0.4--
121511:40 pm 0.4--
121511:30 pm 0.4--
121511:20 pm 0.4--
121511:10 pm 0.4--
121511:00 pm 0.4--
121510:50 pm 0.4--
121510:40 pm 0.4--
121510:30 pm 0.4--
121510:20 pm 0.4--
121510:10 pm 0.4--
12159:58 pm 0.4--
12159:48 pm 0.4--
12159:28 pm 0.4--
12159:18 pm 0.4--
12159:08 pm 0.4--
12158:48 pm 0.4--
12158:38 pm 0.4--
12158:28 pm 0.4--
12157:46 pm 0.4--
12157:36 pm 0.4--
12157:26 pm 0.4--
12157:16 pm 0.4--
12156:46 pm 5.1--
12156:36 pm 0.4--
12156:26 pm 0.4--
12156:16 pm 0.4--
12156:04 pm 0.4--
12155:54 pm 0.4--
12155:24 pm 0.4--
12155:14 pm 0.4--
12154:54 pm 0.4--
12154:44 pm 9.8--
12154:34 pm 19.2--
12154:24 pm 42.7--
12154:14 pm 47.4--
12154:02 pm 103.8--
12153:52 pm 155.6--
12153:42 pm 80.3--
12153:32 pm 136.7--
12153:22 pm 287.2--
12153:12 pm 291.9--
12153:02 pm 240.2--
12152:52 pm 259.0--
12152:42 pm 371.8--
12152:32 pm 244.9--
12152:22 pm 385.9--
12152:12 pm 400.0--
12152:00 pm 456.4--
12151:50 pm 489.3--
12151:40 pm 512.8--
12151:30 pm 536.3--
12151:20 pm 555.1--
12151:10 pm 588.0--
12151:00 pm 606.8--
121512:50 pm 616.2--
121512:40 pm 559.8--
121512:30 pm 639.8--
121512:20 pm 635.1--
121512:08 pm 639.8--
121511:58 am 635.1--
121511:48 am 625.6--
121511:38 am 602.1--
121511:28 am 588.0--
121511:18 am 578.6--
121511:08 am 559.8--
121510:58 am 550.4--
121510:48 am 536.3--
121510:38 am 522.2--
121510:28 am 353.0--
121510:16 am 357.7--
121510:06 am 470.5--
12159:56 am 470.5--
12159:46 am 418.8--
12159:36 am 395.3--
12159:26 am 357.7--
12159:16 am 315.4--
12159:06 am 254.3--
12158:56 am 221.4--
12158:46 am 188.5--
12158:36 am 174.4--
12158:24 am 150.8--
12158:14 am 122.6--
12158:04 am 103.8--
12157:54 am 89.7--
12157:44 am 61.5--
12157:34 am 42.7--
12157:24 am 28.6--
12157:14 am 9.8--
12157:04 am 0.4--
12156:54 am 0.4--
12156:44 am 0.4--
12156:12 am 0.4--
12155:42 am 0.4--
12155:12 am 0.4--
12155:02 am 0.4--
12154:52 am 0.4--
12154:42 am 5.1--
12154:20 am 0.4--
12154:00 am 0.4--
12153:50 am 0.4--
12153:40 am 0.4--
12153:30 am 0.4--
12153:20 am 0.4--
12153:10 am 0.4--
12152:50 am 0.4--
12152:40 am 0.4--
12152:28 am 0.4--
12152:18 am 0.4--
12152:08 am 0.4--

Description of Measurements

Links which are specific to this station are listed below:

Real Time Data in tabular form for the last forty-five days.

Historical Data & Climatic Summaries for quality controlled data for the current month, previous months, and previous years.